Wind_Speed
11 10 11 12 10 9 9 11 12 13 14 15 16 15 13 11 10 9 9 9 8 9 9 10 10 11 11 12 13 14 14 15 15 15 15 16 16 17 17 17 18 18 19 19 19 19 19 19 19 19 18 17 16 16 15 15 14 14 13 13 13 14 14 13 13 13 13 13 14 14 15 16 17 18 20 22 23 24 24 24 25 26 28 30 31
12 13 14 14 14 12 11 13 16 16 16 16 17 17 16 14 12 11 10 10 10 10 10 10 11 11 11 11 11 12 13 14 14 14 14 15 15 16 16 17 18 18 19 19 19 19 19 19 19 19 18 18 17 16 16 15 15 15 15 15 15 15 16 16 16 17 17 18 19 20 21 22 23 24 25 27 28 29 29 30 31 32 33 34 35
13 14 15 17 18 17 14 14 17 19 20 20 19 18 17 17 15 13 12 11 11 11 11 11 12 12 11 11 11 11 12 12 13 14 14 14 14 15 16 16 17 18 18 19 19 19 19 19 19 18 18 17 17 17 16 16 16 16 16 16 17 18 18 19 20 20 21 22 23 25 25 26 27 27 29 30 31 32 33 34 35 35 35 36 36
14 14 16 17 18 19 18 16 16 19 22 24 23 20 18 18 17 16 14 13 12 12 12 12 13 13 13 13 12 12 11 11 12 13 13 13 13 14 15 15 16 17 18 18 18 19 19 19 18 18 17 17 17 17 17 17 17 17 18 18 19 19 20 21 22 23 24 25 26 27 27 28 28 29 30 31 33 34 35 36 36 36 37 37 38
18 17 17 15 14 18 20 20 19 20 22 25 26 23 19 18 18 18 17 16 15 15 14 14 15 15 14 14 14 13 12 12 12 12 12 12 12 13 14 15 15 16 16 16 17 17 18 18 17 17 17 16 16 17 17 17 18 19 19 20 20 21 21 22 22 23 25 26 26 27 27 28 29 29 29 31 32 33 34 35 36 37 37 38 38
22 22 20 14 11 15 20 24 25 24 23 25 27 27 24 21 20 20 19 19 18 18 17 16 16 16 15 14 14 13 13 13 12 12 12 12 11 11 12 13 14 14 14 14 15 15 15 16 15 15 15 15 16 16 17 18 19 19 20 21 21 21 21 21 22 23 24 24 25 26 27 27 28 28 29 29 31 31 32 33 34 35 35 35 35
20 21 21 17 16 21 24 26 27 25 24 25 27 29 30 28 25 23 22 21 21 21 20 19 18 17 16 14 14 13 12 12 12 12 12 12 11 10 11 12 12 12 12 12 12 13 13 13 13 13 13 13 14 15 16 17 18 19 20 20 20 21 21 21 21 22 22 23 24 24 25 26 26 27 28 29 30 31 31 31 31 31 32 32 33
21 22 22 21 22 23 24 26 27 27 29 31 31 31 32 32 30 27 24 24 24 23 22 21 20 19 18 17 15 14 13 12 11 12 12 11 11 10 9 9 10 10 10 10 9 9 10 9 9 10 11 11 12 13 13 14 15 17 17 18 19 19 20 20 21 21 21 22 22 23 23 23 24 25 26 28 28 28 29 29 28 29 29 30 30
25 25 27 26 25 24 24 28 31 32 34 35 35 33 32 33 33 30 28 28 27 26 24 22 21 20 20 19 17 16 15 14 12 12 11 11 10 9 8 8 7 7 7 7 7 6 6 6 6 7 8 8 9 10 10 11 12 14 15 15 16 17 18 19 20 20 20 20 21 21 21 21 22 22 23 23 24 24 24 24 24 24 24 24 23
30 30 29 29 29 30 31 34 36 36 36 36 36 35 34 34 34 34 33 31 29 28 26 23 21 20 20 20 18 16 15 14 13 12 11 11 11 10 8 7 6 5 5 4 4 3 3 3 3 3 4 5 6 6 7 8 9 10 11 12 13 14 15 16 18 18 19 19 19 19 19 19 19 19 19 19 20 20 19 19 19 19 18 17 15
31 32 33 34 35 36 37 38 39 38 38 38 38 38 37 35 35 36 36 33 30 30 30 27 23 21 21 21 20 17 15 13 13 13 12 11 12 11 10 8 6 5 4 3 3 3 2 2 1 1 0 1 2 3 4 5 6 7 8 9 10 11 12 14 15 16 16 17 17 17 16 16 16 16 15 15 15 15 14 14 14 14 13 12 10
32 32 35 38 39 40 43 44 44 43 42 41 40 39 39 37 36 36 37 35 32 32 32 31 28 25 24 23 21 18 16 14 14 14 13 13 13 13 13 11 9 7 6 6 5 5 5 5 4 4 3 3 2 3 3 4 5 5 6 7 8 9 10 12 13 14 14 14 14 14 14 13 13 13 13 12 11 10 9 8 8 8 7 7 7
45 41 41 40 39 41 44 47 47 46 44 44 42 41 41 40 38 37 36 35 34 33 32 31 30 29 28 26 23 21 18 15 14 14 15 15 15 15 15 15 13 10 8 8 7 8 8 7 7 7 6 6 5 5 5 6 7 7 8 8 9 9 10 11 12 13 13 13 13 13 12 12 12 11 11 10 9 7 6 6 5 4 3 3 3
57 55 52 47 43 42 44 46 49 48 45 44 43 43 44 43 40 38 38 37 36 35 33 31 30 30 30 29 26 24 22 18 15 14 15 16 16 16 16 15 15 12 10 9 9 9 10 10 9 9 9 9 8 8 8 8 8 9 10 11 12 12 13 13 13 13 13 13 12 12 11 12 12 11 11 10 9 7 7 7 6 5 4 3 3
62 61 59 55 52 51 50 49 50 51 48 44 44 45 46 45 42 40 40 40 39 38 36 33 32 32 32 31 29 28 26 21 17 16 15 17 18 18 16 15 14 13 11 10 10 10 11 11 11 12 12 12 11 11 11 10 10 11 11 12 13 14 15 16 16 16 16 15 14 13 12 12 12 12 11 11 11 10 10 9 9 9 9 8 8
68 67 65 62 59 59 59 56 53 52 51 48 45 45 46 47 45 43 42 42 42 42 40 38 36 35 34 33 32 31 29 26 22 20 18 17 18 19 18 17 16 15 15 14 13 12 12 13 13 14 14 14 14 14 14 14 13 13 13 14 14 14 14 15 16 17 18 18 17 16 16 15 14 14 14 14 13 13 13 13 13 13 13 13 13
72 71 70 68 65 63 63 62 60 58 56 53 50 47 47 48 47 46 45 44 44 45 44 41 39 37 35 34 34 32 31 29 27 25 22 20 19 19 20 20 19 19 18 18 18 17 16 15 15 15 15 15 16 17 18 18 17 17 16 17 16 15 15 15 15 16 16 17 18 18 18 17 17 16 16 16 16 15 15 16 16 16 17 17 17
74 73 72 70 69 67 65 64 63 62 60 60 58 54 51 50 48 46 45 45 46 47 46 43 41 38 37 36 36 35 33 31 29 27 25 25 24 23 22 23 23 22 19 18 19 20 19 18 17 17 16 16 17 19 20 22 22 21 20 20 19 18 17 17 18 17 16 17 17 17 17 17 16 16 15 15 15 16 17 17 18 18 18 18 19
76 75 74 73 71 70 68 67 65 64 64 63 63 61 58 56 54 51 48 47 48 49 49 46 43 41 40 39 39 39 37 34 30 28 27 27 28 28 27 27 27 25 21 19 20 21 22 21 19 18 18 17 18 20 21 23 24 24 23 23 22 19 18 20 21 20 19 20 20 19 19 18 18 17 17 17 17 18 19 19 19 19 18 18 18
79 77 76 75 74 72 71 69 68 67 67 66 66 65 63 62 61 59 55 51 50 51 52 50 47 45 44 43 42 42 41 37 34 32 30 29 30 32 32 33 32 29 26 25 24 23 22 22 22 21 21 21 21 21 22 24 26 26 25 25 24 20 19 23 25 24 23 23 23 23 22 21 20 20 20 20 20 19 19 19 19 19 18 17 17
81 80 79 77 76 75 73 72 71 70 70 69 68 68 67 66 65 64 62 58 55 55 55 53 49 46 45 45 44 43 42 40 38 36 34 32 32 33 35 36 36 34 32 32 31 29 26 24 24 24 24 24 25 25 25 25 26 28 29 28 25 22 22 25 27 27 27 25 24 24 24 23 22 22 21 20 20 20 19 17 17 17 17 16 15
84 82 81 80 79 78 77 75 74 73 73 72 71 71 70 69 68 67 66 64 61 59 58 56 53 50 49 50 49 47 45 44 42 40 37 35 35 36 37 39 38 37 37 37 37 36 34 31 29 28 28 29 29 29 28 27 28 30 32 31 28 25 24 26 28 30 29 27 25 25 24 23 22 22 21 20 19 19 18 16 16 17 17 15 14
87 86 85 84 82 81 80 79 78 77 76 75 74 74 73 72 71 70 69 67 66 64 63 62 60 57 55 55 55 53 50 49 48 46 43 40 39 39 41 43 42 40 40 40 40 40 39 38 36 34 32 32 32 32 31 31 31 32 34 33 31 28 27 27 28 29 30 29 28 27 25 23 22 22 21 19 18 17 16 16 16 17 17 16 14
91 89 88 87 86 85 84 83 82 80 79 78 78 77 76 75 74 73 72 70 69 68 68 67 66 63 59 57 57 57 55 55 55 53 50 47 45 44 44 46 46 45 44 43 42 42 42 42 41 40 38 37 36 35 34 34 34 35 35 35 34 32 30 29 28 28 29 30 30 29 27 24 22 22 20 19 18 17 16 16 17 17 17 16 15
93 92 91 90 89 88 87 86 85 84 82 81 81 80 79 78 77 76 75 73 72 71 71 71 70 68 65 62 62 62 62 62 62 61 58 56 53 50 49 49 49 49 48 47 44 43 43 43 43 44 43 41 39 38 37 36 36 36 37 37 36 35 33 32 29 28 30 31 31 31 31 27 24 23 22 21 19 18 17 18 18 18 16 16 15
94 93 93 92 91 90 89 89 88 87 86 85 84 83 82 81 80 79 77 76 75 74 74 74 74 73 72 70 70 69 69 69 68 67 66 65 61 56 54 53 51 51 52 51 48 46 46 45 45 45 45 44 43 41 40 38 37 37 38 38 38 37 36 35 32 31 31 33 33 32 32 30 27 26 25 24 22 20 19 19 19 18 16 16 16
96 95 94 94 93 92 91 90 90 89 88 88 87 86 85 83 82 81 80 80 79 78 77 77 77 76 75 74 74 74 73 73 72 71 71 70 66 61 58 56 54 53 53 53 52 51 50 48 47 47 47 46 46 45 43 41 39 38 39 39 40 39 39 38 36 34 34 34 33 33 33 32 30 29 28 27 25 22 21 20 20 19 17 17 17
98 97 97 96 95 94 93 92 92 91 90 90 90 89 88 87 85 84 83 82 82 81 80 80 79 79 78 77 76 76 76 75 74 73 73 72 70 65 61 59 58 56 55 54 54 55 54 53 51 50 50 49 49 48 48 45 42 40 39 40 40 41 41 41 40 38 36 34 33 33 33 32 31 31 31 31 28 24 22 22 22 21 19 18 19
100 99 99 98 97 96 95 94 94 93 92 91 91 91 91 90 88 87 86 85 85 84 84 83 82 81 80 79 78 78 78 77 76 75 74 74 72 68 65 62 61 60 59 58 57 57 58 58 56 54 53 53 52 51 51 50 47 45 43 42 42 42 43 44 44 42 38 35 34 34 34 33 32 32 33 33 31 27 25 25 25 24 23 22 22
102 101 101 100 100 99 98 97 97 96 95 94 93 93 92 91 90 90 89 88 88 87 87 86 85 84 83 82 81 80 80 79 78 77 76 75 74 72 69 66 65 64 63 61 59 58 58 59 59 59 57 56 54 53 52 52 51 50 49 47 46 45 45 46 46 45 43 39 38 37 37 36 35 34 33 33 32 31 30 29 28 28 27 26 25
103 103 102 101 101 101 100 100 99 99 98 97 96 95 94 93 93 92 92 92 91 90 89 88 87 86 85 85 84 83 82 82 81 79 78 78 77 75 73 70 69 67 66 65 64 63 61 60 61 61 61 60 58 57 55 53 53 53 52 51 50 48 48 48 48 48 47 44 42 41 40 39 38 35 33 34 34 34 34 32 31 31 31 29 29
106 105 104 103 102 102 101 101 101 101 101 100 100 98 97 96 95 95 95 94 93 92 91 90 90 89 88 87 87 86 85 84 83 82 81 80 79 78 77 75 73 72 70 68 68 67 67 65 64 64 64 63 62 61 58 57 56 56 55 54 53 52 51 51 51 50 50 48 45 43 42 42 41 38 35 35 37 37 37 35 34 33 32 31 31
108 107 106 105 104 103 103 103 103 103 103 102 101 101 100 99 99 98 97 97 96 94 94 93 92 92 91 90 89 88 87 86 86 84 83 83 82 81 80 79 78 77 75 73 71 70 69 68 68 67 67 67 66 65 63 61 60 60 59 59 58 56 54 52 52 52 52 51 48 45 43 43 43 42 39 38 39 40 39 38 37 36 35 34 34
110 109 108 107 107 106 105 105 105 105 104 104 103 102 102 101 101 100 100 99 98 97 97 96 95 94 93 92 91 90 89 88 88 87 86 86 85 84 83 82 82 81 80 79 76 74 72 70 69 69 69 69 68 67 66 65 64 63 62 62 61 60 58 55 54 54 54 54 51 48 46 45 45 45 43 41 41 42 41 41 40 39 39 39 38
113 112 111 110 109 109 108 108 108 107 107 106 105 104 104 103 102 101 100 100 99 99 99 99 98 97 96 95 94 92 91 90 90 89 89 88 88 87 87 86 85 84 84 83 82 79 77 74 73 71 70 70 70 69 68 67 66 65 64 63 63 63 62 60 57 56 56 56 54 52 50 48 48 48 47 45 44 44 43 43 43 43 42 42 42
117 115 114 113 112 112 111 111 110 110 110 109 108 107 106 105 104 103 102 101 100 100 99 99 99 98 98 97 96 95 94 93 92 92 91 90 90 90 90 89 89 87 86 86 85 84 82 81 78 76 73 71 71 71 70 68 67 67 66 65 65 65 64 63 61 59 58 58 57 56 54 52 51 51 50 49 48 47 46 46 45 45 46 46 46
121 120 118 117 116 115 115 114 113 113 112 111 110 109 108 108 107 106 105 104 103 102 101 101 100 100 99 98 97 97 96 95 95 94 93 92 91 91 91 91 91 90 89 88 88 87 87 86 84 83 80 76 74 74 72 71 69 68 68 67 67 67 67 67 65 63 61 60 60 58 56 55 55 54 54 54 53 51 49 48 47 48 50 50 49
125 124 123 122 121 119 119 118 117 116 115 114 113 112 111 111 110 109 108 107 106 105 104 103 103 102 101 100 99 99 98 97 97 96 96 95 93 93 92 92 92 92 91 90 90 90 90 89 88 88 87 84 81 78 77 75 73 71 70 70 70 70 70 69 68 67 65 64 63 60 57 57 58 57 56 57 56 54 52 51 51 53 53 52 52
129 129 128 126 125 123 122 122 121 120 119 118 117 116 115 114 113 112 111 110 109 108 107 106 105 105 104 103 102 101 100 100 100 99 98 97 96 95 94 93 93 92 92 92 91 91 91 92 91 91 91 90 88 86 83 81 78 76 74 73 72 72 72 72 71 70 69 68 66 62 58 58 60 59 57 57 58 56 55 55 55 55 55 55 55
133 132 131 130 129 128 126 126 125 124 123 122 121 121 120 119 118 117 115 114 113 112 111 110 109 108 107 105 104 103 102 102 103 102 101 100 99 98 97 96 95 94 93 93 93 93 93 93 94 94 93 93 92 91 90 88 86 83 80 78 77 76 75 75 74 74 72 72 71 67 62 61 63 63 61 60 60 58 58 57 57 55 55 56 58
135 135 134 133 132 131 130 129 129 128 127 126 125 125 124 123 122 121 120 119 117 116 115 114 113 112 111 109 107 106 105 104 104 104 104 103 103 102 100 99 98 97 96 95 94 95 94 94 95 96 96 96 95 94 93 93 92 89 87 85 83 81 79 78 77 77 76 75 75 73 70 68 69 69 68 67 65 64 62 62 61 60 59 58 59
135 135 135 135 134 134 133 133 132 131 130 130 129 128 127 127 126 125 124 123 122 121 120 119 117 117 115 114 112 110 108 107 106 106 105 106 105 105 104 103 101 100 99 98 97 97 97 96 96 96 97 98 98 97 96 96 95 93 91 89 88 87 85 83 81 80 79 79 78 78 77 75 73 72 73 73 72 70 69 68 68 67 66 64 62
134 135 135 135 135 134 134 134 134 134 134 133 132 131 131 130 129 129 127 127 126 125 124 123 122 121 120 118 117 115 113 111 110 108 108 107 107 107 107 106 105 103 102 101 100 100 99 99 99 98 98 99 99 99 99 98 97 96 93 92 91 91 90 88 86 84 83 82 81 81 81 79 77 75 75 76 75 74 73 72 72 71 71 69 67
132 133 134 134 134 134 134 134 135 135 135 135 134 134 134 133 132 132 131 130 129 128 128 127 126 125 124 123 121 119 117 115 114 113 112 110 110 109 108 108 107 107 105 104 103 103 102 102 102 101 101 101 101 101 101 100 99 98 96 94 93 92 93 92 91 89 87 85 84 84 84 83 81 79 78 78 78 77 76 75 75 74 73 72 71
130 131 131 132 132 133 133 134 134 134 135 135 135 135 135 135 135 134 134 133 132 132 131 130 129 129 128 127 126 124 122 120 118 117 115 114 113 112 111 109 109 109 108 107 106 106 105 105 105 104 104 103 103 103 103 102 101 100 99 96 94 93 94 94 94 93 91 89 88 87 86 86 85 84 82 80 80 80 79 79 78 77 76 75 75
127 128 129 130 131 131 132 132 133 133 134 134 135 135 135 135 135 135 135 135 135 134 134 133 133 132 131 130 129 128 126 124 122 121 119 118 117 115 114 113 112 111 110 109 109 108 107 107 107 107 107 107 106 106 105 104 103 102 101 99 96 95 94 95 95 95 95 94 92 91 90 89 88 87 86 84 83 82 81 81 81 81 80 79 78
123 124 126 127 128 129 130 130 131 132 132 133 134 134 135 135 135 135 136 136 136 136 136 135 135 134 133 132 131 131 129 127 126 124 123 122 120 119 118 117 116 115 113 112 111 111 110 109 109 109 109 110 110 109 108 107 106 105 104 102 100 97 96 96 96 96 97 97 96 94 93 92 91 90 89 88 87 85 84 84 83 83 83 83 82
119 121 122 123 124 126 127 128 128 129 130 131 132 132 133 134 135 135 136 136 136 136 136 136 136 135 135 134 133 133 132 130 129 127 126 125 123 122 121 120 119 118 117 115 114 113 112 112 111 111 111 112 112 112 111 110 109 108 107 106 104 102 99 98 97 97 98 99 99 98 97 95 94 93 92 91 90 89 88 87 87 86 86 86 86
114 116 117 119 120 122 123 124 125 126 127 128 129 130 131 132 133 134 135 136 136 136 136 136 136 135 135 134 134 133 133 132 131 130 129 128 127 125 124 123 123 122 121 120 118 116 115 114 114 113 113 113 113 113 113 113 112 111 110 108 108 106 104 102 101 99 99 99 100 100 100 99 98 97 96 94 93 92 91 91 90 90 89 88 88
108 109 111 113 115 117 118 120 121 122 123 125 126 127 128 129 130 131 132 134 134 135 135 135 135 135 134 133 133 132 132 132 132 132 132 131 130 129 127 126 126 125 124 123 122 120 119 118 117 116 116 115 115 114 114 114 114 114 113 112 111 110 109 107 105 104 102 101 101 101 101 101 101 100 100 98 97 95 94 93 93 93 92 92 91
102 103 104 106 107 109 111 113 115 116 118 120 121 123 124 125 126 128 129 131 132 132 133 133 133 133 132 132 132 132 132 132 132 133 133 132 132 131 130 129 128 128 127 126 126 124 123 122 120 120 119 118 117 117 116 116 115 115 115 115 114 112 111 111 110 108 106 105 103 103 102 102 102 102 102 102 101 100 98 97 96 96 96 95 95
Wind_Direction
263 273 281 282 284 285 287 298 312 320 323 328 332 333 329 323 319 315 314 316 320 326 332 339 344 349 353 356 359 2 5 8 13 18 22 24 23 23 26 29 33 36 38 40 43 45 46 47 48 47 47 47 47 46 45 46 46 45 46 47 49 51 54 55 56 57 58 59 59 60 61 61 62 62 63 65 68 70 72 74 76 80 83 86 89
283 274 279 291 298 301 300 301 308 313 316 320 324 325 323 320 316 311 308 307 307 310 316 322 329 334 339 344 348 353 356 358 3 9 15 19 19 18 21 25 29 33 36 38 40 43 45 47 48 47 49 50 52 53 53 55 56 56 57 57 58 60 62 64 65 66 67 67 67 68 69 70 70 71 72 74 76 78 81 84 87 89 92 95 98
282 269 276 295 300 299 301 302 304 306 307 309 312 314 315 314 312 306 303 301 298 298 301 307 314 320 326 331 335 341 346 349 353 359 7 13 15 15 17 20 25 29 33 35 37 41 43 46 48 49 52 55 57 60 62 64 66 66 65 66 66 67 68 68 69 70 71 71 72 73 74 75 76 77 79 81 83 87 90 94 96 97 99 101 102
276 267 270 280 286 289 293 296 296 296 297 298 300 302 306 307 306 302 298 295 292 291 291 294 300 306 314 320 325 330 335 340 345 350 358 8 11 12 13 17 22 27 31 32 35 38 41 45 48 51 54 58 62 64 68 71 73 73 74 75 75 74 74 75 75 76 76 76 77 78 79 80 81 83 86 88 91 95 98 100 102 103 105 106 107
259 254 257 267 283 291 289 287 288 287 288 290 291 292 294 298 298 296 294 291 289 287 287 289 293 298 305 313 319 324 328 333 339 344 351 1 8 9 10 14 19 24 29 31 32 36 39 43 49 53 56 60 64 69 73 75 76 78 81 82 81 80 81 82 82 82 83 84 84 85 86 87 88 91 93 96 98 101 103 105 107 108 110 111 111
247 238 240 251 268 268 264 270 281 283 281 283 285 284 284 286 288 288 289 290 289 289 289 290 291 296 302 309 315 320 325 328 333 338 345 353 2 7 8 10 15 20 27 30 32 35 39 43 49 54 57 61 66 71 75 78 80 84 87 88 88 88 89 89 90 90 91 92 92 93 94 94 96 98 100 102 105 107 109 110 112 113 114 114 114
244 235 237 241 239 239 248 264 274 275 274 276 278 278 278 279 282 284 288 292 292 292 292 293 295 301 306 310 315 317 321 326 329 333 338 345 354 1 4 6 9 15 21 27 32 35 39 43 48 54 58 61 65 70 76 81 85 89 93 95 96 97 98 98 98 98 98 99 100 101 101 101 103 105 107 110 111 113 114 115 116 116 117 117 116
234 234 237 239 238 243 253 258 258 263 270 273 272 271 271 274 278 281 285 289 291 290 291 293 296 303 310 313 317 320 321 324 327 329 332 336 343 350 355 359 2 7 13 19 26 33 38 43 47 51 55 60 64 69 75 82 88 94 99 101 103 106 107 108 108 107 107 108 109 109 109 110 111 113 115 118 118 119 119 119 118 119 119 119 118
224 232 236 237 238 239 239 240 247 258 266 268 269 267 265 268 274 277 279 284 287 286 286 289 293 298 304 307 311 317 320 321 321 322 322 324 328 335 340 345 350 355 1 7 14 23 32 38 42 47 54 61 66 71 78 84 91 99 104 107 110 113 116 117 118 118 118 117 117 118 118 118 119 120 122 124 124 123 122 120 119 118 117 117 116
224 231 237 238 236 232 233 243 253 259 261 263 266 265 261 263 270 274 277 280 285 285 283 284 288 294 299 302 303 309 315 317 315 313 312 311 310 314 321 325 327 330 336 343 350 358 9 20 30 41 55 67 75 80 85 90 97 105 111 115 117 120 123 125 126 126 126 126 125 125 126 126 125 125 125 126 126 124 123 122 123 122 118 115 112
230 234 237 239 240 239 242 252 257 258 260 263 263 261 259 259 264 272 275 277 281 283 281 279 282 288 294 298 300 303 307 310 311 308 304 301 300 299 303 307 305 302 298 293 288 285 282 274 269 280 59 103 106 104 107 113 117 122 127 131 132 134 135 136 137 137 136 135 134 132 133 134 133 131 129 129 129 128 126 127 130 131 129 125 119
235 234 234 237 244 247 248 252 255 257 261 262 260 258 257 256 259 267 272 273 276 278 277 276 277 281 286 291 295 296 296 298 305 306 300 295 293 291 291 292 292 286 277 268 263 257 252 246 242 240 236 225 204 184 172 165 162 160 159 159 158 157 156 155 154 153 151 150 148 145 145 145 145 143 142 141 140 139 137 135 135 136 134 132 134
241 239 238 240 246 249 249 249 252 255 259 260 257 255 254 252 255 262 267 269 271 272 272 272 273 276 280 284 288 288 286 288 295 300 299 292 286 284 281 281 281 280 274 266 259 255 251 248 246 244 241 236 230 221 213 205 199 196 193 192 191 188 183 179 177 174 173 172 170 167 164 164 163 163 162 163 163 166 167 165 163 160 155 154 158
243 243 244 245 246 248 251 252 252 253 257 257 253 251 252 250 252 258 262 264 266 266 265 265 267 269 273 276 280 280 280 281 282 286 290 288 281 276 273 272 272 272 271 267 262 259 256 253 252 251 249 245 242 239 233 226 220 215 211 209 209 209 205 202 199 196 195 196 196 195 192 189 187 187 189 192 196 202 204 203 210 224 234 242 239
244 244 246 246 245 245 248 252 253 251 252 252 249 248 250 249 251 255 257 259 262 262 261 260 261 265 267 268 270 272 273 275 274 273 277 282 280 276 273 272 272 273 274 271 268 265 262 259 257 257 256 254 252 250 245 240 236 232 227 223 220 219 218 218 218 217 218 222 227 230 229 225 221 219 221 222 224 228 232 234 240 248 256 262 263
244 245 246 247 247 245 245 248 250 250 249 248 247 247 248 247 248 251 253 255 259 260 259 259 260 263 265 264 263 264 266 268 271 270 269 273 279 280 278 276 274 273 274 274 272 268 265 263 261 258 258 259 258 256 254 249 244 241 239 236 232 230 229 228 228 229 230 233 239 246 250 253 253 251 251 251 251 252 253 255 259 263 267 270 272
243 244 246 247 247 246 246 246 248 249 248 247 247 248 249 247 246 249 250 252 255 256 257 258 259 260 262 262 262 263 262 262 265 270 269 267 270 275 277 276 273 268 266 266 268 267 264 261 259 256 256 257 259 259 257 253 249 244 243 242 239 237 238 239 239 239 239 241 243 247 252 258 261 263 265 268 269 270 271 271 272 274 275 277 278
243 244 245 246 246 246 246 246 247 247 246 246 247 248 250 248 246 248 250 252 254 254 254 255 256 256 257 259 262 264 262 260 260 264 266 263 262 264 268 271 272 271 268 265 264 266 265 262 258 256 255 256 258 260 259 257 253 248 246 246 243 241 243 246 246 245 248 250 250 250 252 254 257 261 266 272 277 281 282 282 283 282 281 281 282
243 244 245 245 246 246 246 245 246 246 245 246 246 248 249 249 248 249 251 253 254 252 251 253 253 253 255 259 263 264 263 261 259 259 260 259 257 259 262 264 266 269 272 271 266 264 264 263 261 259 257 257 258 260 261 261 259 256 253 251 249 247 249 251 251 249 249 252 254 255 255 256 258 260 264 272 280 284 285 284 284 284 285 285 286
243 243 244 245 245 245 245 245 245 245 245 246 246 247 249 249 250 250 251 253 253 250 249 250 250 251 255 259 263 263 262 260 258 258 258 256 251 251 256 260 262 265 269 270 267 263 262 264 265 264 261 258 257 258 260 262 263 262 258 254 251 248 247 250 253 252 251 253 257 259 260 261 263 265 269 274 278 281 282 282 282 282 283 286 289
243 243 243 244 244 245 245 244 244 245 245 246 246 247 248 249 249 250 251 251 251 249 247 247 247 249 254 258 261 260 259 260 260 259 259 258 253 248 249 254 258 262 266 268 267 266 264 263 264 265 265 262 260 258 257 259 262 263 259 255 251 246 243 247 252 254 254 255 257 261 264 266 267 269 271 274 275 277 279 281 281 282 283 284 287
243 243 243 244 244 244 244 244 245 245 245 246 246 247 248 248 249 250 250 250 249 247 246 245 246 249 253 258 260 259 258 260 262 262 262 263 260 254 249 249 252 257 262 266 267 267 267 266 264 263 264 264 263 260 259 259 260 261 260 257 253 246 241 244 250 256 260 260 259 260 263 266 268 269 270 270 271 273 276 279 280 281 283 284 284
244 244 244 244 244 244 244 245 245 245 245 246 247 247 248 248 249 249 249 249 249 248 246 246 247 250 254 257 258 257 257 258 259 261 263 264 263 260 254 250 249 252 255 259 262 265 266 267 266 264 263 263 263 262 261 259 257 257 258 258 255 250 244 243 246 253 260 264 264 263 263 263 265 268 269 269 269 269 271 274 276 277 280 280 281
245 244 244 244 244 244 244 245 245 245 245 245 246 247 247 248 248 248 248 248 248 248 248 248 249 250 252 253 254 254 255 257 258 260 261 263 264 263 260 254 250 250 253 254 256 261 263 264 264 264 264 262 261 261 260 258 256 256 256 257 257 253 249 246 244 247 253 258 263 266 267 266 266 268 269 268 267 265 266 268 271 274 276 274 273
244 244 244 244 244 244 244 245 245 245 245 245 245 246 247 247 247 248 248 248 248 248 248 248 249 249 250 250 251 251 253 256 258 260 261 263 263 264 263 259 253 250 252 252 253 256 259 260 261 262 262 261 260 259 258 257 256 257 257 257 257 255 253 249 246 245 247 250 254 259 264 266 266 267 267 266 265 265 264 264 267 270 271 268 264
243 244 244 244 244 244 244 244 245 245 245 245 245 246 246 247 247 247 247 247 248 248 248 249 249 250 250 251 251 252 253 254 256 258 260 262 263 261 260 259 256 253 252 253 253 254 255 257 258 260 260 260 260 260 259 257 257 258 259 259 259 258 256 253 250 247 246 246 248 253 259 263 264 264 265 264 263 262 261 261 263 265 265 263 259
242 243 244 244 244 244 244 244 244 244 245 245 245 245 245 246 246 247 247 247 247 247 248 248 249 250 250 251 252 252 253 253 255 256 258 260 261 260 257 256 256 255 253 253 254 255 256 256 257 258 259 260 261 261 260 259 258 257 258 259 260 260 259 257 255 251 247 246 247 250 254 259 262 262 263 263 262 260 260 261 262 263 262 260 259
241 241 242 243 244 244 244 244 244 244 244 245 245 245 245 245 245 246 247 247 248 248 248 248 249 249 250 250 251 252 252 253 253 254 256 257 259 258 256 253 252 253 253 253 254 255 255 255 255 256 257 258 259 261 261 260 259 257 257 258 259 260 260 260 258 255 250 246 246 249 252 255 257 258 260 261 262 262 262 262 262 263 260 258 259
240 241 241 242 243 243 244 244 244 244 244 244 244 245 246 246 246 246 246 246 247 247 247 248 248 248 249 249 250 250 251 252 252 253 254 255 256 256 254 252 251 250 251 253 254 254 254 253 253 254 255 255 257 259 259 259 259 258 257 257 257 258 260 260 259 257 253 249 247 248 251 252 252 252 254 257 260 262 261 259 258 259 256 254 256
240 240 241 241 242 243 243 244 244 244 244 244 244 244 245 246 246 246 246 245 246 246 247 247 247 248 248 249 249 249 250 251 251 252 252 253 254 253 252 251 250 249 248 249 251 253 252 251 252 253 254 254 255 256 257 258 258 259 259 259 257 257 258 259 259 258 256 253 250 249 251 252 251 249 249 252 255 257 256 255 253 254 253 252 253
241 241 241 241 242 242 243 243 244 244 244 244 244 244 244 245 245 246 246 246 246 246 246 247 247 248 248 248 248 249 249 250 250 250 251 251 252 252 251 249 249 248 247 247 248 251 252 252 252 252 253 253 254 254 255 256 258 259 260 260 259 258 257 257 258 258 257 255 252 250 251 253 253 250 248 249 252 254 254 254 252 252 254 255 256
242 242 242 242 242 242 243 243 243 244 244 244 244 244 244 244 244 245 245 246 246 247 247 247 247 247 248 248 248 248 248 249 249 249 250 250 251 251 250 249 247 247 247 247 247 249 251 252 252 252 252 252 252 253 253 254 256 258 260 261 261 261 259 258 257 257 257 256 254 253 252 254 255 253 249 248 250 252 254 254 254 253 255 256 258
243 243 243 243 243 243 243 244 244 244 244 244 244 244 244 244 244 244 244 245 246 247 247 247 247 247 247 248 248 248 248 249 249 249 249 249 249 250 250 249 248 247 246 247 247 248 249 251 251 251 250 250 251 252 252 252 253 255 258 260 261 262 261 259 257 257 257 256 255 254 254 254 256 255 252 249 248 250 252 253 253 253 253 253 254
244 244 244 244 244 244 244 244 245 245 245 245 245 245 245 245 245 244 244 244 245 246 246 247 247 248 248 248 248 248 249 249 249 249 249 248 248 248 248 249 248 247 246 246 246 247 248 249 249 249 249 249 250 251 252 252 252 253 255 257 259 261 262 261 258 257 256 256 255 255 254 255 257 257 255 252 249 249 249 251 251 251 252 252 252
245 245 246 246 246 245 245 246 246 246 246 246 246 246 246 246 246 245 245 245 245 245 245 246 247 247 247 248 248 248 248 249 249 249 249 248 248 248 247 247 247 247 246 246 246 246 246 247 248 248 248 248 249 250 251 252 252 253 254 256 257 259 261 261 261 259 257 255 255 254 254 255 256 257 257 256 253 251 249 249 249 250 251 252 253
246 246 246 246 246 246 246 246 247 247 247 247 247 248 248 248 248 247 247 246 246 245 245 246 246 246 246 247 247 247 247 248 248 248 248 248 248 248 248 247 247 246 246 246 246 247 247 246 247 248 248 248 248 249 249 250 251 253 254 255 256 257 258 260 260 260 258 256 254 253 253 254 256 256 256 257 256 254 251 250 249 250 251 252 252
248 247 247 247 247 247 247 247 247 247 248 248 248 248 249 249 249 249 248 248 247 247 246 246 246 246 246 246 246 246 247 247 247 248 248 248 247 248 248 248 248 247 246 245 245 246 247 247 247 247 248 249 249 249 249 250 250 251 252 254 255 256 257 258 259 259 259 258 255 254 254 255 256 255 255 256 256 255 255 254 253 252 252 251 252
249 249 249 248 248 248 247 248 248 248 248 248 249 249 249 249 249 249 249 249 249 249 248 248 247 247 246 246 246 246 247 247 247 247 247 247 247 247 247 247 248 248 248 246 245 244 245 246 247 248 248 249 249 250 251 251 252 252 252 253 254 254 255 256 257 257 258 258 257 256 256 258 258 257 255 256 257 257 257 258 257 255 253 253 254
249 249 249 249 249 249 249 249 249 249 249 249 249 249 249 249 249 250 250 250 250 250 249 249 249 248 247 247 246 246 246 247 247 247 247 246 246 246 246 246 247 247 248 248 247 246 244 245 246 247 248 249 249 249 250 251 253 254 254 254 254 254 254 254 255 255 256 256 256 256 256 258 259 257 255 256 258 259 259 259 258 257 256 255 255
249 249 249 250 250 250 250 250 250 250 250 250 250 250 250 250 250 250 250 250 250 250 250 250 250 250 249 248 247 247 246 246 247 247 247 247 247 246 246 246 246 246 246 247 248 248 247 246 245 245 247 248 249 249 249 250 252 254 255 255 255 254 254 253 253 254 254 254 255 254 254 254 255 256 255 255 256 256 257 258 258 257 257 256 256
248 249 249 250 250 250 250 251 251 251 251 251 250 250 250 250 250 250 250 250 250 250 250 250 250 250 250 249 249 248 247 247 246 246 247 247 247 247 246 246 246 246 246 246 247 247 248 248 247 246 246 246 248 249 250 250 251 252 253 255 255 255 254 254 253 253 253 254 254 254 253 252 253 255 255 256 255 254 255 257 258 257 256 257 258
249 249 249 250 250 250 251 251 251 251 251 251 251 251 251 251 251 251 251 251 251 251 251 251 251 250 250 250 249 249 248 248 247 246 246 246 247 247 247 246 246 245 245 245 246 246 247 247 248 248 247 247 247 248 249 250 251 251 252 253 254 254 255 254 253 252 252 253 254 254 254 253 253 254 255 256 257 256 256 257 258 258 258 259 260
249 249 250 250 250 250 251 251 251 251 252 252 252 252 252 252 252 252 251 251 251 251 251 251 251 251 251 250 250 249 249 248 248 247 247 246 246 246 246 247 247 246 245 245 245 245 246 246 247 248 248 248 248 248 248 249 250 251 251 251 251 252 253 254 254 253 252 252 253 254 255 254 254 253 254 256 257 258 258 258 259 260 260 260 260
250 250 250 250 250 251 251 251 251 251 252 252 252 252 252 252 252 252 252 252 252 252 252 251 251 251 251 251 250 250 249 249 248 248 248 247 247 246 246 246 246 246 246 245 245 245 245 246 246 246 247 248 249 249 249 249 249 250 250 250 250 250 251 252 253 253 253 252 253 254 254 255 254 254 253 254 256 257 258 259 259 260 260 260 260
250 250 250 250 250 250 251 251 251 251 251 252 252 252 252 252 252 252 252 252 252 252 252 252 252 251 251 251 251 250 250 249 248 248 248 248 247 247 246 246 245 245 246 246 245 245 245 245 246 246 246 247 248 249 249 250 250 250 250 250 249 249 249 249 250 252 252 252 253 253 254 255 255 255 254 254 255 256 257 258 259 260 260 261 260
250 250 250 251 251 251 251 251 251 251 251 251 251 252 252 252 252 252 252 252 252 252 252 252 252 252 251 251 251 251 250 249 249 248 248 248 247 247 247 247 246 245 245 245 245 245 245 245 245 246 246 247 247 247 248 249 250 250 250 250 249 248 248 248 248 249 251 252 252 253 253 254 255 255 256 255 255 255 256 257 258 259 260 260 260
250 250 250 250 251 251 251 251 251 250 250 251 251 251 251 252 252 252 252 252 251 251 251 251 251 251 251 251 251 251 250 250 249 249 248 248 247 247 247 247 247 246 245 244 244 244 244 244 245 245 246 246 247 247 247 248 249 250 250 251 250 249 248 248 247 247 249 250 251 252 253 253 254 255 256 256 256 256 256 256 256 257 258 259 260
250 250 250 250 250 251 251 251 251 251 251 250 250 250 250 251 251 251 251 251 251 251 251 251 251 251 250 250 251 251 250 250 250 249 249 248 247 247 247 247 247 247 246 245 244 243 243 243 244 244 245 246 246 247 247 247 248 248 249 250 251 251 250 249 248 247 247 248 249 251 252 253 253 254 255 255 256 256 256 256 256 256 257 258 259
251 251 251 251 251 251 251 251 251 251 251 251 251 250 250 250 250 250 251 251 251 251 251 251 251 250 250 250 250 250 250 250 250 250 249 249 248 247 247 246 246 246 246 246 245 244 243 243 243 243 244 244 245 246 247 247 247 247 248 248 249 250 251 251 250 249 248 247 248 249 250 251 252 253 254 255 255 256 256 256 257 257 256 257 257
252 252 251 251 251 251 251 251 251 251 251 251 251 251 251 251 251 251 251 251 251 251 251 251 251 251 251 251 250 250 250 250 250 250 250 249 248 248 247 246 246 246 246 246 245 245 244 243 242 242 242 243 244 244 245 246 247 247 247 247 248 249 249 250 251 250 250 249 248 248 249 250 251 252 253 254 254 255 255 256 256 257 257 257 257
252 252 252 252 252 252 252 252 252 252 252 252 252 252 252 251 251 251 251 251 251 251 251 251 251 251 251 251 251 251 251 251 250 250 250 249 249 248 247 247 246 245 245 245 245 244 244 243 243 242 241 242 242 243 244 245 245 246 247 247 247 247 248 249 250 250 250 250 250 249 249 249 250 251 252 253 254 254 254 255 255 256 257 257 258
Height
11029 11029 11029 11029 11030 11031 11032 11032 11033 11034 11034 11034 11035 11035 11035 11034 11034 11034 11034 11035 11035 11035 11034 11034 11034 11033 11033 11032 11031 11031 11030 11029 11029 11028 11027 11027 11025 11025 11024 11024 11023 11022 11021 11020 11019 11018 11018 11017 11016 11015 11014 11013 11012 11011 11010 11009 11009 11008 11007 11006 11006 11005 11004 11004 11003 11002 11001 11000 10999 10998 10997 10996 10995 10994 10993 10992 10991 10990 10989 10988 10987 10986 10985 10984 10983
11029 11029 11029 11029 11029 11030 11031 11032 11033 11034 11034 11035 11035 11035 11036 11035 11035 11035 11035 11035 11035 11035 11036 11035 11035 11035 11034 11034 11033 11032 11032 11031 11030 11030 11029 11028 11027 11027 11026 11025 11025 11024 11023 11022 11021 11020 11019 11018 11018 11017 11016 11014 11013 11012 11012 11011 11010 11009 11008 11008 11007 11006 11006 11005 11004 11003 11002 11002 11001 11000 10999 10998 10997 10996 10995 10994 10993 10992 10991 10990 10989 10988 10988 10987 10986
11028 11028 11028 11028 11029 11029 11031 11032 11033 11034 11034 11035 11035 11035 11036 11036 11036 11036 11035 11035 11035 11036 11036 11036 11036 11036 11035 11035 11034 11034 11033 11032 11032 11031 11031 11030 11029 11029 11028 11028 11027 11026 11025 11024 11023 11022 11021 11020 11020 11019 11018 11016 11015 11014 11013 11012 11011 11011 11010 11009 11009 11008 11007 11007 11006 11005 11004 11003 11003 11002 11001 11000 10999 10999 10997 10996 10996 10995 10994 10994 10993 10992 10991 10991 10990
11025 11025 11024 11026 11027 11028 11028 11030 11032 11033 11034 11034 11035 11035 11035 11036 11036 11036 11035 11035 11035 11035 11035 11035 11035 11035 11035 11035 11035 11035 11034 11034 11033 11033 11033 11032 11031 11031 11030 11030 11029 11029 11028 11027 11026 11025 11024 11023 11022 11021 11020 11019 11018 11017 11016 11015 11013 11012 11012 11011 11010 11010 11009 11008 11008 11007 11006 11006 11005 11004 11004 11003 11002 11002 11001 11000 10999 10999 10998 10998 10997 10996 10996 10995 10994
11020 11020 11021 11023 11026 11026 11024 11025 11028 11032 11033 11034 11034 11035 11035 11035 11035 11035 11035 11035 11034 11034 11034 11034 11035 11035 11035 11035 11035 11035 11035 11035 11034 11034 11034 11034 11033 11033 11032 11032 11031 11031 11030 11029 11028 11027 11026 11025 11024 11024 11023 11021 11020 11019 11018 11017 11016 11015 11014 11013 11012 11011 11011 11010 11009 11009 11008 11008 11007 11007 11007 11006 11005 11005 11004 11004 11003 11003 11002 11001 11001 11000 11000 10999 10998
11017 11017 11020 11023 11025 11024 11021 11021 11024 11029 11032 11033 11033 11033 11034 11034 11034 11034 11034 11034 11034 11033 11033 11033 11033 11034 11034 11035 11035 11035 11035 11035 11035 11035 11035 11035 11035 11034 11034 11033 11033 11033 11032 11031 11030 11029 11028 11028 11027 11026 11025 11024 11023 11022 11021 11020 11019 11018 11017 11015 11014 11014 11013 11012 11011 11011 11010 11010 11010 11009 11009 11009 11008 11008 11007 11007 11006 11006 11005 11005 11004 11003 11003 11002 11001
11016 11015 11018 11021 11022 11020 11020 11022 11025 11027 11029 11031 11032 11032 11032 11032 11033 11033 11032 11033 11033 11033 11033 11033 11033 11033 11034 11034 11035 11035 11036 11036 11036 11036 11036 11036 11036 11036 11035 11035 11034 11034 11033 11033 11032 11031 11030 11030 11029 11028 11028 11027 11026 11025 11024 11023 11022 11021 11020 11018 11017 11016 11015 11014 11014 11013 11013 11012 11012 11011 11011 11011 11010 11010 11010 11010 11009 11009 11008 11007 11007 11006 11005 11005 11004
11012 11012 11014 11017 11018 11019 11022 11027 11028 11027 11027 11028 11030 11030 11031 11031 11032 11032 11032 11031 11032 11032 11033 11032 11032 11033 11033 11034 11035 11036 11036 11036 11036 11036 11036 11036 11036 11036 11035 11035 11035 11035 11034 11034 11033 11032 11032 11031 11030 11030 11029 11029 11028 11027 11026 11025 11025 11024 11022 11021 11020 11019 11018 11017 11016 11015 11015 11014 11014 11013 11013 11013 11012 11012 11012 11012 11011 11011 11010 11010 11009 11009 11008 11008 11007
11009 11009 11010 11013 11016 11018 11022 11026 11026 11025 11024 11025 11027 11028 11029 11030 11030 11031 11031 11030 11030 11031 11032 11032 11032 11033 11033 11034 11035 11035 11036 11036 11036 11036 11036 11036 11036 11036 11035 11035 11035 11034 11034 11034 11033 11033 11032 11032 11031 11031 11030 11030 11029 11029 11028 11027 11027 11026 11025 11024 11022 11021 11020 11019 11018 11017 11017 11016 11016 11015 11015 11014 11014 11014 11014 11013 11013 11012 11012 11012 11011 11011 11010 11010 11010
11007 11007 11008 11011 11013 11015 11018 11020 11021 11022 11022 11022 11024 11026 11026 11027 11028 11029 11029 11030 11030 11030 11031 11032 11032 11032 11032 11032 11033 11034 11035 11036 11036 11035 11035 11035 11034 11034 11034 11034 11034 11034 11034 11033 11033 11033 11032 11032 11031 11031 11030 11030 11030 11029 11029 11029 11028 11027 11026 11025 11024 11023 11022 11021 11020 11019 11018 11018 11017 11017 11017 11016 11016 11016 11015 11015 11014 11014 11013 11013 11013 11012 11012 11012 11011
11003 11005 11008 11010 11010 11013 11016 11017 11016 11018 11018 11019 11021 11023 11023 11024 11026 11026 11027 11028 11028 11028 11029 11030 11030 11030 11031 11031 11032 11033 11034 11035 11035 11034 11034 11034 11033 11033 11033 11033 11033 11033 11033 11033 11032 11032 11031 11031 11031 11030 11030 11030 11030 11029 11029 11029 11028 11028 11027 11026 11026 11025 11024 11022 11022 11021 11020 11019 11019 11018 11018 11017 11017 11017 11017 11016 11016 11016 11015 11014 11014 11013 11013 11012 11012
10997 11000 11003 11006 11008 11011 11015 11015 11013 11013 11015 11016 11017 11018 11019 11021 11022 11024 11025 11025 11025 11026 11026 11027 11028 11029 11029 11030 11030 11031 11032 11033 11033 11033 11033 11033 11032 11031 11031 11031 11031 11032 11032 11032 11031 11031 11030 11030 11030 11030 11029 11029 11029 11029 11029 11028 11028 11028 11027 11027 11026 11025 11024 11024 11023 11022 11021 11020 11020 11019 11019 11018 11018 11018 11018 11017 11017 11017 11016 11016 11015 11014 11014 11013 11012
10989 10993 10997 11001 11004 11008 11011 11010 11008 11009 11010 11011 11013 11014 11015 11017 11019 11020 11021 11022 11022 11023 11023 11025 11025 11026 11027 11028 11028 11029 11030 11031 11031 11032 11032 11031 11031 11030 11029 11028 11029 11029 11030 11031 11031 11030 11030 11029 11029 11028 11028 11028 11028 11028 11027 11027 11027 11027 11027 11026 11026 11025 11025 11024 11023 11022 11022 11021 11021 11020 11020 11019 11019 11019 11018 11018 11018 11017 11017 11017 11016 11015 11015 11014 11013
10984 10987 10991 10997 11001 11005 11007 11005 11004 11004 11005 11007 11008 11010 11011 11013 11015 11016 11017 11018 11019 11019 11020 11021 11022 11023 11024 11025 11026 11026 11027 11029 11029 11029 11029 11029 11029 11028 11027 11027 11026 11027 11028 11029 11030 11030 11029 11029 11028 11028 11027 11027 11027 11027 11026 11026 11026 11025 11025 11025 11025 11024 11024 11024 11023 11023 11022 11022 11021 11021 11020 11020 11020 11019 11019 11018 11018 11018 11017 11017 11016 11016 11015 11015 11014
10978 10981 10985 10991 10996 10999 11001 11000 10999 10999 11001 11002 11004 11006 11007 11008 11010 11012 11013 11014 11014 11015 11017 11017 11018 11019 11020 11021 11022 11023 11024 11026 11026 11026 11026 11026 11026 11026 11026 11026 11026 11026 11027 11028 11028 11029 11028 11028 11028 11027 11027 11026 11026 11026 11025 11025 11024 11024 11023 11023 11023 11023 11023 11023 11022 11022 11022 11021 11021 11021 11021 11020 11020 11019 11019 11019 11018 11017 11017 11016 11016 11015 11015 11015 11014
10973 10975 10979 10983 10988 10991 10992 10993 10994 10994 10996 10998 10999 11001 11002 11004 11005 11007 11008 11009 11010 11011 11013 11014 11015 11015 11016 11017 11018 11020 11021 11022 11023 11023 11024 11024 11024 11023 11024 11024 11023 11023 11023 11024 11025 11026 11026 11026 11025 11025 11025 11025 11025 11024 11024 11023 11023 11022 11021 11021 11021 11021 11021 11021 11021 11021 11020 11020 11020 11020 11020 11020 11020 11019 11019 11018 11018 11017 11017 11016 11015 11015 11014 11014 11014
10967 10969 10972 10975 10979 10982 10985 10987 10988 10989 10991 10993 10994 10996 10997 10999 11001 11002 11003 11004 11005 11006 11008 11009 11010 11011 11012 11012 11013 11015 11017 11019 11019 11019 11021 11022 11022 11021 11021 11020 11020 11019 11019 11019 11020 11020 11021 11021 11021 11022 11022 11022 11022 11022 11021 11021 11021 11020 11019 11019 11018 11018 11019 11019 11018 11018 11018 11018 11018 11018 11018 11018 11018 11018 11018 11018 11017 11017 11016 11016 11015 11015 11014 11013 11013
10960 10963 10965 10968 10971 10974 10977 10979 10981 10983 10985 10986 10988 10990 10991 10993 10995 10997 10998 11000 11001 11002 11003 11004 11005 11006 11007 11008 11008 11010 11012 11014 11015 11016 11017 11018 11018 11019 11018 11018 11016 11016 11016 11017 11017 11017 11017 11017 11018 11018 11018 11019 11019 11018 11018 11018 11018 11018 11018 11017 11016 11016 11016 11016 11016 11016 11016 11016 11016 11016 11016 11016 11016 11016 11017 11017 11017 11017 11016 11015 11015 11014 11013 11012 11011
10952 10955 10957 10960 10962 10965 10968 10971 10973 10975 10977 10979 10981 10983 10985 10987 10989 10991 10993 10994 10995 10996 10997 10998 11000 11001 11002 11003 11003 11004 11006 11009 11011 11012 11013 11014 11014 11015 11015 11015 11014 11013 11013 11014 11014 11014 11014 11014 11015 11015 11015 11015 11015 11015 11015 11015 11015 11015 11016 11015 11015 11015 11015 11013 11013 11013 11013 11013 11013 11013 11013 11013 11013 11014 11014 11015 11015 11016 11015 11015 11014 11013 11012 11011 11010
10943 10946 10949 10951 10954 10957 10960 10963 10965 10967 10969 10972 10974 10976 10978 10981 10983 10984 10986 10988 10990 10991 10992 10993 10994 10995 10997 10998 10998 10998 11000 11003 11005 11006 11007 11009 11010 11011 11011 11010 11010 11010 11011 11010 11010 11010 11011 11011 11012 11012 11012 11012 11012 11011 11011 11011 11011 11011 11012 11012 11013 11014 11013 11011 11010 11010 11010 11010 11010 11010 11010 11011 11011 11012 11012 11012 11013 11013 11013 11013 11013 11012 11012 11011 11010
10934 10937 10940 10943 10946 10949 10952 10955 10957 10959 10961 10964 10966 10968 10970 10973 10975 10977 10980 10982 10984 10985 10986 10988 10989 10990 10991 10992 10993 10993 10994 10997 10999 11001 11002 11004 11006 11007 11007 11007 11007 11007 11007 11006 11006 11006 11007 11008 11008 11009 11009 11008 11008 11008 11008 11008 11007 11007 11007 11008 11009 11011 11011 11008 11007 11006 11006 11007 11008 11007 11008 11009 11009 11010 11010 11010 11010 11010 11010 11010 11011 11011 11011 11010 11009
10924 10928 10931 10934 10937 10940 10943 10946 10949 10951 10953 10955 10958 10960 10962 10964 10966 10969 10972 10974 10976 10978 10980 10982 10983 10985 10986 10986 10986 10988 10989 10991 10993 10995 10997 10999 11001 11002 11003 11003 11003 11004 11003 11002 11002 11002 11002 11003 11004 11005 11005 11005 11003 11003 11003 11004 11004 11003 11002 11003 11005 11007 11008 11006 11005 11004 11004 11004 11005 11004 11005 11006 11007 11007 11007 11008 11008 11008 11007 11008 11008 11008 11008 11008 11008
10913 10917 10920 10924 10927 10930 10933 10936 10940 10942 10945 10947 10949 10951 10953 10955 10957 10960 10963 10966 10968 10970 10973 10975 10977 10979 10981 10981 10980 10981 10983 10985 10986 10988 10991 10993 10995 10997 10997 10997 10998 10999 10999 10998 10998 10998 10998 10998 10998 10999 11000 11000 11000 10999 10999 10999 10999 10999 10998 10999 11001 11003 11004 11004 11003 11003 11002 11001 11001 11001 11001 11003 11003 11004 11005 11005 11005 11006 11006 11006 11006 11006 11006 11006 11006
10901 10906 10909 10912 10917 10920 10923 10926 10929 10933 10936 10939 10940 10941 10943 10946 10948 10951 10954 10957 10960 10963 10965 10968 10970 10971 10974 10975 10974 10974 10976 10978 10979 10981 10984 10987 10989 10991 10992 10992 10992 10993 10993 10992 10993 10994 10994 10994 10993 10993 10994 10995 10995 10995 10994 10994 10994 10994 10994 10995 10996 10998 10999 11000 11001 11001 11000 10999 10998 10998 10998 10999 11000 11001 11001 11002 11002 11003 11003 11003 11003 11003 11003 11003 11003
10890 10894 10897 10901 10905 10909 10913 10916 10918 10922 10927 10930 10931 10932 10934 10937 10939 10943 10945 10948 10951 10954 10956 10959 10961 10963 10966 10968 10968 10968 10970 10970 10971 10973 10976 10979 10982 10985 10986 10986 10986 10987 10986 10986 10988 10989 10988 10988 10988 10988 10988 10988 10989 10989 10989 10989 10990 10990 10990 10991 10992 10993 10995 10996 10997 10998 10997 10996 10996 10995 10996 10997 10998 10998 10998 10998 10999 10999 10999 10999 10999 10999 10999 11000 10999
10879 10882 10885 10889 10893 10898 10902 10904 10908 10912 10916 10918 10920 10923 10925 10928 10930 10933 10936 10938 10941 10944 10947 10949 10952 10954 10957 10960 10960 10961 10962 10963 10964 10967 10969 10971 10975 10978 10980 10980 10980 10981 10980 10981 10982 10982 10982 10982 10983 10982 10982 10983 10984 10984 10985 10985 10986 10987 10987 10987 10988 10989 10990 10992 10993 10993 10993 10992 10993 10993 10994 10995 10995 10995 10995 10995 10995 10995 10995 10995 10995 10996 10996 10996 10996
10869 10872 10874 10877 10881 10886 10890 10893 10897 10901 10904 10906 10909 10912 10916 10919 10921 10923 10926 10928 10931 10934 10937 10939 10942 10945 10948 10950 10951 10952 10953 10954 10956 10960 10962 10963 10966 10970 10972 10973 10974 10975 10974 10975 10976 10976 10976 10977 10977 10977 10977 10978 10978 10979 10980 10981 10982 10983 10983 10983 10984 10985 10986 10987 10988 10989 10988 10989 10990 10991 10992 10992 10993 10993 10992 10991 10991 10992 10992 10992 10992 10993 10993 10993 10993
10858 10861 10863 10865 10869 10873 10878 10882 10885 10889 10892 10895 10897 10901 10904 10908 10911 10914 10916 10919 10921 10924 10927 10928 10931 10934 10937 10940 10942 10943 10943 10945 10948 10952 10954 10955 10957 10961 10964 10965 10967 10968 10968 10969 10969 10969 10970 10970 10971 10971 10972 10972 10973 10973 10974 10975 10977 10978 10979 10979 10980 10980 10981 10981 10982 10983 10984 10985 10987 10987 10988 10989 10990 10989 10989 10988 10988 10989 10990 10990 10990 10990 10990 10990 10989
10846 10849 10852 10855 10858 10862 10865 10869 10873 10877 10881 10883 10885 10888 10891 10897 10901 10904 10906 10908 10910 10912 10915 10917 10920 10924 10927 10930 10932 10934 10934 10935 10939 10943 10945 10946 10948 10951 10955 10957 10959 10960 10962 10963 10963 10962 10962 10963 10964 10965 10966 10967 10968 10968 10968 10969 10971 10972 10973 10973 10974 10974 10975 10975 10976 10977 10979 10981 10982 10982 10983 10984 10984 10984 10984 10984 10985 10986 10987 10987 10986 10985 10985 10985 10984
10833 10837 10840 10844 10848 10851 10854 10857 10860 10864 10868 10871 10874 10877 10881 10885 10890 10892 10894 10896 10898 10901 10903 10906 10910 10914 10917 10919 10922 10924 10925 10926 10930 10933 10935 10937 10939 10941 10945 10948 10950 10952 10953 10955 10955 10954 10955 10956 10957 10958 10960 10961 10962 10962 10962 10964 10965 10965 10966 10967 10967 10968 10969 10970 10971 10972 10974 10976 10977 10977 10977 10978 10978 10979 10980 10980 10981 10981 10982 10981 10981 10980 10980 10980 10979
10821 10824 10829 10833 10836 10840 10843 10845 10848 10851 10855 10858 10861 10866 10870 10873 10876 10878 10880 10883 10886 10890 10893 10896 10899 10903 10906 10908 10911 10914 10916 10917 10920 10923 10925 10927 10929 10931 10935 10938 10941 10943 10944 10946 10947 10946 10947 10949 10950 10951 10952 10954 10955 10955 10956 10957 10958 10958 10959 10959 10960 10961 10962 10963 10965 10967 10968 10969 10971 10971 10972 10972 10972 10973 10975 10975 10976 10976 10976 10976 10976 10976 10976 10977 10976
10807 10811 10816 10820 10824 10828 10831 10833 10836 10839 10841 10844 10848 10853 10857 10860 10863 10865 10867 10870 10875 10880 10883 10885 10888 10891 10894 10896 10899 10902 10905 10906 10909 10913 10915 10917 10919 10921 10924 10927 10930 10933 10935 10937 10938 10938 10939 10941 10941 10942 10944 10946 10947 10947 10949 10950 10951 10951 10951 10952 10953 10954 10956 10957 10959 10961 10962 10963 10965 10966 10967 10967 10967 10968 10969 10970 10970 10970 10970 10971 10971 10972 10972 10973 10973
10794 10798 10803 10807 10811 10815 10818 10821 10824 10826 10828 10831 10835 10840 10843 10846 10850 10853 10856 10859 10864 10867 10870 10873 10875 10878 10882 10884 10887 10890 10893 10896 10899 10902 10905 10907 10909 10911 10913 10915 10918 10922 10924 10926 10928 10929 10930 10932 10933 10933 10935 10937 10938 10939 10941 10943 10943 10944 10944 10945 10946 10947 10949 10951 10952 10954 10955 10957 10959 10960 10961 10962 10962 10962 10963 10963 10963 10964 10965 10965 10966 10967 10968 10968 10967
10780 10784 10789 10794 10798 10802 10805 10807 10810 10811 10814 10818 10822 10826 10829 10832 10836 10840 10844 10848 10852 10855 10857 10860 10863 10866 10869 10872 10875 10879 10882 10885 10887 10890 10892 10895 10898 10900 10902 10904 10906 10909 10912 10915 10918 10920 10921 10923 10924 10924 10925 10927 10929 10931 10933 10934 10935 10936 10937 10938 10939 10940 10942 10944 10946 10947 10948 10950 10952 10953 10954 10955 10956 10956 10956 10957 10958 10958 10959 10959 10960 10961 10962 10961 10962
10765 10769 10774 10779 10783 10787 10790 10792 10794 10797 10800 10803 10807 10811 10814 10818 10822 10827 10831 10835 10839 10843 10845 10847 10850 10854 10857 10860 10863 10867 10870 10872 10874 10877 10880 10882 10885 10887 10890 10892 10894 10898 10901 10904 10907 10910 10912 10913 10914 10914 10916 10918 10920 10922 10924 10925 10926 10928 10929 10930 10931 10932 10934 10936 10938 10939 10940 10942 10944 10946 10947 10948 10948 10948 10949 10950 10951 10952 10953 10953 10954 10955 10955 10955 10956
10749 10754 10759 10763 10767 10771 10774 10776 10779 10782 10785 10788 10793 10797 10801 10805 10809 10813 10817 10821 10825 10829 10832 10834 10837 10840 10844 10847 10850 10854 10857 10859 10861 10863 10867 10870 10872 10874 10877 10879 10882 10886 10890 10893 10896 10899 10901 10903 10904 10905 10907 10909 10911 10912 10914 10916 10917 10919 10921 10922 10923 10924 10925 10927 10929 10931 10933 10934 10936 10937 10939 10940 10941 10941 10942 10942 10943 10945 10946 10947 10948 10949 10949 10949 10949
10732 10737 10742 10746 10750 10754 10758 10760 10763 10767 10770 10774 10779 10783 10787 10790 10793 10797 10801 10805 10810 10814 10817 10820 10823 10827 10830 10833 10837 10840 10843 10845 10848 10850 10853 10856 10860 10862 10865 10867 10870 10873 10877 10881 10885 10888 10890 10892 10894 10896 10897 10900 10902 10903 10904 10906 10908 10909 10911 10913 10914 10916 10917 10918 10921 10923 10925 10926 10928 10930 10933 10933 10933 10933 10934 10934 10935 10937 10939 10941 10942 10942 10941 10941 10942
10714 10718 10723 10727 10732 10737 10741 10745 10748 10752 10756 10760 10764 10767 10771 10774 10777 10780 10785 10789 10794 10799 10802 10805 10808 10812 10815 10819 10823 10827 10829 10832 10834 10837 10840 10843 10846 10849 10852 10855 10858 10860 10863 10868 10872 10876 10878 10880 10883 10885 10887 10889 10891 10893 10894 10896 10898 10899 10902 10904 10905 10907 10908 10909 10912 10914 10917 10918 10920 10924 10927 10926 10923 10924 10926 10927 10927 10930 10932 10933 10934 10934 10934 10935 10935
10695 10699 10703 10708 10713 10719 10724 10728 10732 10736 10740 10744 10747 10750 10754 10758 10761 10765 10769 10773 10778 10782 10785 10789 10792 10796 10800 10804 10808 10813 10816 10818 10820 10823 10826 10829 10832 10835 10839 10842 10846 10848 10851 10854 10858 10861 10865 10867 10870 10873 10875 10877 10880 10882 10884 10885 10887 10889 10891 10894 10896 10897 10898 10900 10902 10904 10907 10909 10912 10917 10922 10919 10915 10915 10918 10918 10919 10921 10923 10924 10925 10926 10927 10928 10927
10677 10680 10684 10690 10695 10700 10705 10709 10714 10718 10723 10727 10730 10733 10737 10741 10745 10749 10753 10757 10761 10765 10769 10773 10776 10779 10783 10788 10793 10797 10801 10804 10806 10808 10811 10814 10818 10821 10825 10829 10832 10836 10839 10842 10844 10847 10850 10853 10857 10860 10863 10865 10868 10870 10872 10874 10876 10878 10880 10883 10885 10887 10889 10890 10892 10894 10897 10899 10901 10907 10912 10911 10906 10906 10908 10909 10909 10912 10913 10914 10916 10918 10919 10919 10919
10659 10663 10667 10672 10677 10682 10686 10691 10695 10699 10704 10708 10711 10715 10719 10723 10728 10732 10735 10739 10743 10747 10752 10756 10759 10762 10765 10770 10776 10781 10785 10788 10791 10793 10796 10799 10803 10806 10810 10814 10818 10822 10826 10830 10832 10834 10836 10839 10842 10846 10849 10852 10855 10858 10860 10862 10865 10867 10869 10871 10874 10876 10878 10880 10882 10884 10886 10888 10890 10893 10897 10898 10897 10898 10899 10899 10900 10902 10904 10905 10906 10908 10909 10910 10911
10642 10646 10649 10653 10659 10664 10668 10672 10676 10680 10684 10688 10692 10696 10700 10705 10709 10714 10718 10722 10725 10730 10734 10737 10741 10744 10748 10752 10758 10763 10768 10771 10775 10778 10781 10784 10787 10790 10794 10799 10803 10808 10812 10816 10819 10821 10823 10826 10829 10831 10834 10838 10841 10844 10847 10850 10852 10855 10858 10860 10862 10864 10866 10869 10871 10873 10876 10878 10878 10880 10883 10885 10888 10889 10890 10890 10891 10892 10894 10895 10896 10897 10899 10901 10902
10624 10626 10630 10635 10641 10646 10650 10654 10657 10661 10665 10669 10673 10677 10681 10685 10689 10694 10698 10703 10707 10711 10715 10719 10722 10725 10729 10733 10739 10745 10750 10754 10758 10762 10765 10768 10771 10775 10779 10783 10788 10793 10797 10801 10805 10807 10810 10813 10815 10818 10820 10822 10825 10829 10833 10836 10839 10842 10844 10847 10849 10852 10854 10856 10859 10862 10865 10867 10868 10868 10870 10872 10875 10878 10880 10880 10880 10882 10884 10885 10886 10887 10888 10890 10892
10604 10607 10612 10617 10622 10627 10631 10635 10638 10642 10645 10649 10653 10657 10661 10666 10670 10674 10678 10683 10687 10691 10696 10700 10703 10706 10710 10714 10719 10725 10731 10736 10740 10744 10747 10750 10754 10758 10762 10767 10771 10776 10781 10786 10790 10793 10796 10799 10801 10804 10806 10809 10811 10814 10817 10821 10824 10827 10830 10833 10836 10839 10841 10844 10846 10849 10852 10856 10857 10858 10858 10860 10862 10866 10868 10869 10869 10871 10873 10874 10875 10876 10877 10879 10880
10584 10588 10593 10598 10602 10606 10610 10615 10619 10622 10626 10629 10633 10637 10641 10645 10649 10653 10657 10662 10667 10671 10675 10679 10683 10686 10690 10694 10698 10704 10710 10716 10721 10725 10729 10733 10736 10741 10746 10750 10755 10759 10764 10769 10774 10778 10781 10784 10787 10790 10793 10795 10797 10799 10802 10805 10809 10812 10816 10819 10823 10826 10828 10831 10834 10836 10839 10842 10845 10846 10847 10848 10850 10852 10855 10857 10859 10860 10862 10863 10863 10865 10866 10867 10868
10565 10570 10574 10577 10581 10585 10589 10594 10598 10602 10606 10609 10613 10617 10620 10624 10628 10632 10636 10640 10645 10649 10654 10657 10661 10665 10669 10673 10678 10682 10688 10695 10701 10706 10710 10714 10719 10724 10728 10732 10736 10741 10746 10752 10756 10761 10765 10769 10773 10775 10778 10780 10782 10785 10788 10790 10794 10797 10801 10805 10810 10813 10815 10818 10821 10823 10825 10827 10831 10834 10836 10837 10839 10840 10842 10845 10847 10849 10851 10851 10851 10853 10854 10855 10856
10547 10551 10554 10557 10560 10564 10567 10572 10576 10580 10584 10589 10593 10596 10599 10602 10606 10610 10614 10618 10622 10626 10631 10635 10639 10644 10649 10653 10657 10661 10667 10673 10679 10685 10689 10694 10700 10706 10710 10714 10718 10722 10728 10734 10739 10744 10748 10753 10757 10760 10762 10763 10765 10769 10773 10776 10780 10783 10786 10790 10795 10799 10802 10804 10807 10810 10811 10813 10817 10820 10822 10825 10827 10828 10830 10832 10835 10837 10839 10840 10840 10841 10842 10843 10844
10529 10532 10535 10538 10541 10544 10547 10550 10554 10558 10563 10567 10571 10574 10577 10581 10585 10588 10591 10595 10599 10603 10607 10612 10617 10622 10628 10633 10637 10641 10646 10652 10658 10663 10668 10674 10680 10686 10691 10695 10699 10703 10708 10714 10720 10726 10731 10735 10739 10743 10746 10747 10750 10752 10757 10761 10765 10769 10772 10776 10780 10784 10787 10790 10792 10795 10797 10800 10803 10806 10809 10812 10814 10816 10818 10820 10822 10824 10826 10828 10829 10829 10831 10832 10832
10511 10514 10517 10519 10522 10525 10528 10531 10534 10538 10542 10546 10549 10552 10556 10560 10564 10567 10569 10572 10576 10581 10585 10590 10595 10600 10606 10612 10617 10622 10627 10632 10637 10642 10647 10652 10658 10664 10670 10675 10680 10684 10689 10694 10700 10706 10712 10717 10721 10725 10728 10731 10734 10737 10740 10745 10749 10754 10758 10761 10765 10768 10772 10775 10777 10780 10783 10786 10790 10792 10795 10798 10800 10802 10804 10807 10810 10812 10814 10815 10816 10817 10819 10820 10821
10494 10496 10499 10502 10504 10507 10510 10513 10516 10519 10522 10525 10528 10532 10536 10539 10543 10546 10548 10551 10555 10559 10563 10568 10574 10579 10585 10591 10597 10602 10607 10612 10616 10620 10624 10629 10635 10641 10647 10653 10659 10664 10668 10673 10679 10685 10691 10697 10701 10706 10710 10714 10718 10721 10725 10729 10732 10736 10741 10745 10749 10753 10756 10760 10762 10765 10768 10771 10775 10778 10781 10784 10786 10788 10790 10793 10796 10799 10801 10802 10802 10804 10806 10807 10808
10478 10480 10483 10486 10488 10490 10493 10495 10498 10501 10503 10506 10509 10513 10516 10520 10523 10526 10528 10531 10535 10539 10543 10548 10554 10560 10566 10571 10576 10581 10585 10589 10593 10598 10602 10606 10612 10618 10624 10630 10636 10642 10647 10652 10658 10663 10669 10675 10680 10685 10690 10696 10701 10705 10709 10712 10716 10719 10723 10727 10732 10736 10741 10744 10747 10750 10753 10756 10759 10763 10766 10770 10772 10774 10776 10778 10781 10784 10787 10788 10789 10791 10792 10793 10794